Date String (YYYY-MM-DD hh:mm:ss) UTC,Instrument flags,Ambient pressure (hPa),Sample flow (lpm),Bypass flow (lpm),Sample temperature (°C),Ambient temperature (°C),ASC tube jacket temperature (°C),LED temperature (°C),Box temperature (°C),Sample RH (%),Span deviation,Mass concentration (μg/m³),Mass concentration (μg/m³),Mass concentration (μg/m³)
DateTimeUTC,F1_M11,P_M11,Q1_M11,Q2_M11,T1_M11,T2_M11,T3_M11,T4_M11,T5_M11,U1_M11,ZSPAN_M11,X0_M11,X2_M11,X1_M11
2023-05-15 19:00:00,,0841.8,4.99,0.00,28.4,26.9,00.0,36.7,30.0,27.1,0000.0,0007.39,0004.91,0004.76
2023-05-15 19:01:00,,0841.7,4.99,0.00,28.4,26.8,00.0,36.7,30.0,26.6,0000.0,0007.44,0004.93,0004.79
2023-05-15 19:02:00,,0841.7,5.01,0.00,28.4,26.8,00.0,36.7,30.0,26.4,0000.0,0007.41,0004.94,0004.80
2023-05-15 19:03:00,,0841.7,5.01,0.00,28.4,26.8,00.0,36.8,29.9,26.6,0000.0,0007.42,0004.95,0004.80
2023-05-15 19:04:00,,0841.7,4.98,0.00,28.4,26.8,00.0,36.8,29.9,26.6,0000.0,0007.41,0004.96,0004.82
2023-05-15 19:05:00,,0841.7,5.00,0.00,28.4,26.8,00.0,36.8,29.9,26.8,0000.0,0007.42,0004.96,0004.82
2023-05-15 19:06:00,,0841.7,5.00,0.00,28.3,26.7,00.0,36.7,29.9,26.5,0000.0,0007.46,0004.98,0004.83
2023-05-15 19:07:00,,0841.7,5.01,0.00,28.3,26.7,00.0,36.8,29.9,26.6,0000.0,0007.50,0005.01,0004.85
2023-05-15 19:08:00,,0841.7,5.01,0.00,28.3,26.7,00.0,36.8,29.9,26.7,0000.0,0007.52,0005.04,0004.89
2023-05-15 19:09:00,,0841.7,4.98,0.00,28.3,26.7,00.0,36.8,29.9,27.0,0000.0,0007.52,0005.05,0004.90
2023-05-15 19:10:00,,0841.7,5.01,0.00,28.3,26.7,00.0,36.8,29.9,26.8,0000.0,0007.55,0005.06,0004.92
2023-05-15 19:11:00,,0841.7,5.01,0.00,28.3,26.7,00.0,36.7,29.9,26.6,0000.0,0007.52,0005.03,0004.91
2023-05-15 19:12:00,,0841.7,5.00,0.00,28.4,26.8,00.0,36.8,30.0,26.8,0000.0,0007.45,0005.00,0004.89
2023-05-15 19:13:00,,0841.7,4.98,0.00,28.4,26.8,00.0,36.8,30.0,27.1,0000.0,0007.42,0004.98,0004.87
2023-05-15 19:14:00,,0841.7,5.01,0.00,28.4,26.8,00.0,36.8,30.0,26.6,0000.0,0007.38,0004.95,0004.85
2023-05-15 19:15:00,,0841.7,5.01,0.00,28.4,26.9,00.0,36.8,30.0,26.6,0000.0,0007.34,0004.92,0004.82
2023-05-15 19:16:00,,0841.6,4.99,0.00,28.4,26.9,00.0,36.8,30.0,26.6,0000.0,0007.33,0004.90,0004.79
2023-05-15 19:17:00,,0841.7,5.00,0.00,28.4,26.9,00.0,36.8,30.0,26.6,0000.0,0007.31,0004.86,0004.74
2023-05-15 19:18:00,,0841.7,5.00,0.00,28.4,26.9,00.0,36.8,30.0,26.4,0000.0,0007.30,0004.80,0004.68
2023-05-15 19:19:00,,0841.7,5.00,0.00,28.4,26.9,00.0,36.8,30.1,25.9,0000.0,0007.27,0004.74,0004.62
2023-05-15 19:20:00,,0841.7,4.99,0.00,28.4,26.9,00.0,36.8,30.1,25.6,0000.0,0007.30,0004.72,0004.58
2023-05-15 19:21:00,,0841.7,5.01,0.00,28.4,26.9,00.0,36.8,30.1,25.8,0000.0,0006.44,0004.68,0004.53
2023-05-15 19:22:00,,0841.6,5.00,0.00,28.4,26.9,00.0,36.8,30.1,26.0,0000.0,0006.14,0004.61,0004.48
2023-05-15 19:23:00,,0841.6,5.01,0.00,28.5,27.0,00.0,36.8,30.1,26.8,0000.0,0006.05,0004.56,0004.42
2023-05-15 19:24:00,,0841.6,5.01,0.00,28.5,27.0,00.0,36.8,30.1,26.8,0000.0,0006.02,0004.54,0004.41
2023-05-15 19:25:00,,0841.6,5.00,0.00,28.5,27.1,00.0,36.8,30.1,26.8,0000.0,0006.04,0004.56,0004.43
2023-05-15 19:26:00,,0841.6,5.00,0.00,28.5,27.1,00.0,36.8,30.2,27.3,0000.0,0006.11,0004.58,0004.44
2023-05-15 19:27:00,,0841.7,5.01,0.00,28.5,27.2,00.0,36.8,30.2,27.2,0000.0,0006.22,0004.59,0004.44
2023-05-15 19:28:00,,0841.6,5.01,0.00,28.5,27.2,00.0,36.8,30.2,26.9,0000.0,0006.33,0004.59,0004.45
2023-05-15 19:29:00,,0841.7,5.00,0.00,28.6,27.2,00.0,36.8,30.2,26.6,0000.0,0006.40,0004.62,0004.47
2023-05-15 19:30:00,,0841.7,4.99,0.00,28.6,27.2,00.0,36.8,30.2,26.4,0000.0,0006.46,0004.66,0004.50
2023-05-15 19:31:00,,0841.6,4.99,0.00,28.6,27.2,00.0,36.9,30.2,26.2,0000.0,0006.53,0004.70,0004.54
2023-05-15 19:32:00,,0841.6,5.00,0.00,28.6,27.1,00.0,36.9,30.2,26.0,0000.0,0006.54,0004.72,0004.57
2023-05-15 19:33:00,,0841.6,5.01,0.00,28.6,27.1,00.0,36.9,30.2,25.7,0000.0,0006.56,0004.74,0004.59
2023-05-15 19:34:00,,0841.6,5.00,0.00,28.6,27.1,00.0,36.9,30.2,26.0,0000.0,0006.62,0004.77,0004.62
2023-05-15 19:35:00,,0841.6,5.00,0.00,28.6,27.1,00.0,36.9,30.2,26.3,0000.0,0006.74,0004.78,0004.62
2023-05-15 19:36:00,,0841.6,5.00,0.00,28.6,27.1,00.0,36.9,30.2,25.8,0000.0,0006.73,0004.78,0004.63
2023-05-15 19:37:00,,0841.6,4.99,0.00,28.6,27.0,00.0,36.9,30.2,25.9,0000.0,0006.72,0004.80,0004.66
2023-05-15 19:38:00,,0841.6,5.01,0.00,28.6,27.0,00.0,36.9,30.2,26.1,0000.0,0006.64,0004.82,0004.69
2023-05-15 19:39:00,,0841.6,5.01,0.00,28.6,27.0,00.0,36.9,30.2,26.4,0000.0,0006.49,0004.84,0004.71
2023-05-15 19:40:00,,0841.6,4.98,0.00,28.6,27.0,00.0,36.9,30.2,26.1,0000.0,0006.34,0004.86,0004.74
2023-05-15 19:41:00,,0841.6,5.01,0.00,28.6,27.0,00.0,36.9,30.2,26.1,0000.0,0006.39,0004.88,0004.78
2023-05-15 19:42:00,,0841.6,5.01,0.00,28.6,27.0,00.0,36.9,30.2,26.0,0000.0,0006.33,0004.88,0004.79
2023-05-15 19:43:00,,0841.6,5.00,0.00,28.6,27.0,00.0,36.9,30.2,26.1,0000.0,0006.34,0004.91,0004.82
2023-05-15 19:44:00,,0841.5,5.00,0.00,28.6,27.0,00.0,36.9,30.2,26.3,0000.0,0006.42,0004.94,0004.84
2023-05-15 19:45:00,,0841.6,5.00,0.00,28.6,27.0,00.0,36.9,30.2,26.7,0000.0,0006.46,0004.95,0004.85
2023-05-15 19:46:00,,0841.6,4.98,0.00,28.6,27.0,00.0,36.9,30.2,26.7,0000.0,0006.32,0004.95,0004.85
2023-05-15 19:47:00,,0841.6,5.00,0.00,28.6,27.1,00.0,36.9,30.2,26.6,0000.0,0006.35,0004.95,0004.84
2023-05-15 19:48:00,,0841.6,5.01,0.00,28.6,27.1,00.0,36.9,30.2,26.2,0000.0,0006.60,0004.94,0004.82
2023-05-15 19:49:00,,0841.6,4.98,0.00,28.6,27.1,00.0,36.9,30.2,26.0,0000.0,0006.89,0004.93,0004.81
2023-05-15 19:50:00,,0841.6,5.01,0.00,28.6,27.1,00.0,36.9,30.2,25.9,0000.0,0006.88,0004.92,0004.81
2023-05-15 19:51:00,,0841.6,5.01,0.00,28.6,27.1,00.0,37.0,30.2,25.8,0000.0,0006.88,0004.91,0004.80
2023-05-15 19:52:00,,0841.6,4.99,0.00,28.6,27.1,00.0,37.0,30.2,25.8,0000.0,0006.88,0004.91,0004.80
2023-05-15 19:53:00,,0841.6,4.99,0.00,28.6,27.1,00.0,37.0,30.3,26.1,0000.0,0006.86,0004.90,0004.78
2023-05-15 19:54:00,,0841.6,5.00,0.00,28.6,27.1,00.0,37.0,30.3,25.9,0000.0,0006.80,0004.88,0004.77
2023-05-15 19:55:00,,0841.6,5.00,0.00,28.7,27.1,00.0,37.0,30.3,25.7,0000.0,0006.84,0004.88,0004.77
2023-05-15 19:56:00,,0841.6,5.00,0.00,28.7,27.2,00.0,37.0,30.3,25.8,0000.0,0006.87,0004.89,0004.78
2023-05-15 19:57:00,,0841.6,4.98,0.00,28.7,27.2,00.0,37.0,30.3,25.6,0000.0,0007.05,0004.93,0004.80
2023-05-15 19:58:00,,0841.6,5.01,0.00,28.7,27.2,00.0,37.0,30.3,25.9,0000.0,0007.13,0004.95,0004.82
2023-05-15 19:59:00,,0841.6,5.01,0.00,28.7,27.3,00.0,37.0,30.3,26.0,0000.0,0007.02,0004.96,0004.82
